Location: Peebles
(55.6412°N, 3.1714°W)
Time: 22:28:57
(UTC+00:00)

FENGYUN 1C DEB - Pass Details

Date: 14 February 2023
Orbit: 707 x 862 km, 98.5° (Epoch: 07 November)

Event Time Altitude Azimuth Distance (km) Brightness Sun altitude
Rises 20:12:48 0° 188° (S) 3,403 ? -25.4°
Reaches altitude 10° 20:15:20 10° 196° (SSW) 2,472 ? -25.8°
Maximum altitude 20:20:28 39° 264° (W) 1,256 ? -26.5°
Drops below altitude 10° 20:25:34 10° 333° (NNW) 2,455 ? -27.2°
Sets 20:28:05 0° 341° (NNW) 3,377 ? -27.5°
